星链-5123 (STARLINK-5123 )

导读 | 豆包AI

STARLINK-5123是美国SpaceX公司星链(Starlink)星座的一颗卫星,于2022年10月5日发射,隶属于美国主导的全球低轨卫星互联网项目。星链计划旨在通过大规模部署低轨道卫星,为全球地面基础设施覆盖不足的偏远地区、海洋及空中提供高速低延迟互联网接入,该卫星目前正常运行在近地轨道,是星链星座全球组网部署的组成部分,同时该项目也引发了关于太空交通与天文观测的相关讨论。

Basic Information
目录编号:
53979
目录名称:
STARLINK-5123
国际标识:
2022-125R
轨道中心:
EARTH
卫星名称:
星链-5123
卫星全名:
星链-5123 (STARLINK-5123 )
卫星状态:
在轨 (已飞行1257 天)
发射日期:
2022-10-05 UTC
国别 :
美国 (US)
星等 :
--
Orbit Information
数据来源 国际轨道数据 AOE轨道数据
星历时间 2026-03-15T01:34:36+0800
17小时前
查看轨道信息
2026-03-12T05:00:00+0800
3天前
查看轨道信息
半长轴 6917.853km 6917.897km
偏心率 0.0001253 0.0001432
轨道倾角 53.216° 53.218°
近地点辐角 105.231° 75.551°
升交点赤经 196.472° 209.306°
平近点角 254.882° 235.381°
近地点 538.849km 538.769km
远地点 540.583km 540.751km
周期 95.437分钟 95.438分钟
每日圈数 15.088491 15.088346
Detailed Information
固有亮度:
5
最大亮度:
2.5
卫星平台:
Starlink v1.5
覆盖范围:
全球
运营商:
太空探索技术公司
运营商所在国:
美国
制造商(研发单位):
太空探索技术公司
制造商所在国:
美国
使用方式:
暂无
Satellite Introduction
星链(Starlink)计划是由太空探索技术公司(SpaceX)提出的一个巨型低轨卫星互联网星座项目,计划在2019年至2024年间在太空搭建由约1.2万颗卫星组成的“星链”网络,其中1584颗将部署在地球上空550千米处的近地轨道,并从2020年开始工作。该卫星仍在工作。
2D Orbit Map
3D Orbit Map
Orbit Altitude Analysis Chart
Orbit Inclination Analysis Chart
Orbit Comprehensive Analysis Chart
View Comprehensive Chart